This demonstration page uses our WeatherBlox Daily Observations layout. Learn more.

Left ArrowRight Arrow

Hourly Observations for March 10, 2020

Temp ( °F °C ) Dew Point ( °F °C ) Humidity (%) Winds ( mph kmh ) Pressure ( in mb ) Visibility ( mi km ) Precip ( " mm )
12:53 am 00:53 Clear 45 7.2 39 3.9 80 80 NW 5 7 30.12 1020 10 16 0.00 0.00
1:53 am 01:53 Clear 45 7.2 39 3.9 80 80 Calm 30.12 1020 10 16 0.00 0.00
2:53 am 02:53 Clear 44 6.7 38 3.3 79 79 NNW 5 7 30.11 1020 10 16 0.00 0.00
3:53 am 03:53 Clear 48 8.9 37 2.8 66 66 N 6 9 30.09 1019 10 16 0.00 0.00
4:53 am 04:53 Clear 49 9.4 37 2.8 64 64 NNW 7 11 30.08 1019 10 16 0.00 0.00
5:53 am 05:53 Clear 48 8.9 36 2.2 63 63 NNW 7 11 30.08 1019 10 16 0.00 0.00
6:53 am 06:53 Clear 48 8.9 35 1.7 61 61 NNW 6 9 30.08 1019 10 16 0.00 0.00
7:53 am 07:53 Sunny 50 10 35 1.7 57 57 N 7 11 30.07 1018 10 16 0.00 0.00
8:53 am 08:53 Sunny 55 12.8 35 1.7 47 47 N 10 17 30.07 1018 10 16 0.00 0.00
9:53 am 09:53 Sunny 59 15 35 1.7 41 41 N 14 22 30.08 1019 10 16 0.00 0.00
10:53 am 10:53 Sunny 63 17.2 36 2.2 37 37 N 14 22 30.08 1019 10 16 0.00 0.00
11:53 am 11:53 Sunny 66 18.9 37 2.8 34 34 NNW 12 19 30.06 1018 10 16 0.00 0.00
12:53 pm 12:53 Sunny 70 21.1 37 2.8 30 30 N 10 17 30.03 1017 10 16 0.00 0.00
1:53 pm 13:53 Sunny 72 22.2 36 2.2 27 27 N 8 13 30.00 1016 10 16 0.00 0.00
2:53 pm 14:53 Sunny 75 23.9 38 3.3 26 26 N 10 17 29.96 1015 10 16 0.00 0.00
3:53 pm 15:53 Sunny 77 25 37 2.8 24 24 N 14 22 29.94 1014 10 16 0.00 0.00
4:53 pm 16:53 Sunny 77 25 37 2.8 24 24 NNW 9 15 29.93 1014 10 16 0.00 0.00
5:53 pm 17:53 Sunny 77 25 36 2.2 23 23 NNW 8 13 29.92 1013 10 16 0.00 0.00
6:53 pm 18:53 Sunny 74 23.3 36 2.2 25 25 NW 3 6 29.92 1013 10 16 0.00 0.00
7:53 pm 19:53 Clear 70 21.1 36 2.2 29 29 NNW 6 9 29.92 1013 10 16 0.00 0.00
8:53 pm 20:53 Clear 69 20.6 36 2.2 30 30 NNW 7 11 29.93 1013 10 16 0.00 0.00
9:53 pm 21:53 Clear 67 19.4 36 2.2 32 32 N 8 13 29.94 1014 10 16 0.00 0.00
10:53 pm 22:53 Clear 59 15 38 3.3 46 46 Calm 29.96 1015 10 16 0.00 0.00
11:53 pm 23:53 Clear 54 12.2 40 4.4 59 59 N 7 11 29.97 1015 10 16 0.00 0.00

Powered by AerisWeather